Date,TemperatureHighF,TemperatureAvgF,TemperatureLowF,DewpointHighF,DewpointAvgF,DewpointLowF,HumidityHigh,HumidityAvg,HumidityLow,PressureMaxIn,PressureMinIn,WindSpeedMaxMPH,WindSpeedAvgMPH,GustSpeedMaxMPH,PrecipitationSumIn
2013-1-1,51,40,32,36,33,28,93,75,53,30.39,30.31,9,0,9,0.00
2013-1-2,54,38,28,36,30,25,94,75,46,30.36,30.25,11,0,11,0.00
2013-1-3,54,38,26,42,33,25,96,85,63,30.38,30.27,6,0,8,0.00
2013-1-4,54,40,30,40,34,29,96,79,47,30.40,30.28,11,1,11,0.01
2013-1-5,50,41,31,44,38,30,97,90,76,30.37,30.18,8,0,8,0.16
2013-1-6,50,42,34,44,40,34,97,93,78,30.29,30.17,10,0,10,0.06
2013-1-7,58,43,33,47,40,32,98,89,63,30.35,30.25,6,0,6,0.02
2013-1-8,58,42,35,48,40,34,97,91,64,30.35,30.23,8,0,8,0.00
2013-1-9,53,43,36,48,40,34,97,88,72,30.26,30.07,12,1,12,0.03
2013-1-10,51,40,31,37,33,28,95,76,48,30.29,30.16,6,0,6,0.00
2013-1-11,51,38,28,38,32,26,95,82,53,30.35,30.22,9,0,9,0.02
2013-1-12,48,37,28,32,28,24,96,73,41,30.35,30.24,7,0,7,0.01
2013-1-13,48,36,25,25,21,13,86,59,33,30.37,30.28,12,0,12,0.00
2013-1-14,47,38,34,22,17,12,48,41,32,30.53,30.32,11,1,12,0.00
2013-1-15,50,38,26,32,27,23,89,68,44,30.59,30.49,9,0,10,0.00
2013-1-16,55,38,26,37,30,25,96,75,41,30.54,30.38,9,0,9,0.00
2013-1-17,62,41,27,40,30,25,96,70,31,30.38,30.26,9,0,9,0.00
2013-1-18,61,43,28,38,30,27,94,65,33,30.35,30.24,10,0,10,0.00
2013-1-19,60,43,27,38,31,24,90,65,43,30.37,30.27,12,0,12,0.00
2013-1-20,62,43,29,36,30,26,89,63,32,30.34,30.23,10,0,10,0.00
2013-1-21,61,43,27,42,32,24,95,68,36,30.29,30.19,9,0,9,0.00
2013-1-22,61,46,31,45,38,29,96,76,54,30.23,30.10,11,0,11,0.00
2013-1-23,51,46,43,47,44,39,96,90,78,30.20,30.06,5,0,5,0.20
2013-1-24,56,52,48,51,49,46,96,90,80,30.29,30.17,8,0,8,0.03
2013-1-25,66,54,48,57,51,47,98,89,67,30.28,30.13,5,0,5,0.00
2013-1-26,60,49,42,50,42,36,98,78,42,30.16,30.05,10,1,10,0.01
2013-1-27,56,44,33,38,35,30,96,73,39,30.26,30.15,8,0,8,0.00
2013-1-28,58,44,33,41,37,31,95,77,47,30.38,30.26,8,0,8,0.00
2013-1-29,59,45,35,42,37,33,95,77,45,30.45,30.35,5,0,5,0.00
2013-1-30,64,50,40,45,40,36,90,71,47,30.44,30.35,8,0,8,0.00
2013-1-31,64,47,34,48,40,32,97,80,54,30.40,30.27,8,0,8,0.00
2013-2-1,63,49,37,48,42,36,97,79,56,30.31,30.22,7,1,10,0.00
2013-2-2,63,48,40,49,43,37,96,83,58,30.38,30.29,8,0,8,0.00
2013-2-3,62,48,39,48,42,37,97,83,57,30.34,30.22,6,0,6,0.01
2013-2-4,62,46,34,52,42,33,98,87,66,30.27,30.15,5,0,5,0.00
2013-2-5,58,49,43,47,44,40,95,81,64,30.24,30.14,11,1,11,0.00
2013-2-6,62,47,34,45,39,33,97,78,49,30.28,30.19,7,0,7,0.00
2013-2-7,51,43,37,45,39,35,96,86,77,30.26,30.19,10,1,10,0.03
2013-2-8,56,43,34,40,37,30,95,79,51,30.11,30.03,2,0,9,0.00
2013-2-9,59,43,28,33,29,26,91,60,30,30.19,30.08,3,0,9,0.00
2013-2-10,62,43,29,39,33,26,90,70,41,30.23,30.10,9,0,9,0.00
2013-2-11,63,48,36,33,30,27,85,53,28,30.32,30.16,9,0,9,0.00
2013-2-12,62,44,30,43,34,27,93,70,39,30.46,30.32,7,0,7,0.00
2013-2-13,66,47,32,44,37,30,95,71,37,30.43,30.29,5,0,5,0.00
2013-2-14,69,52,37,46,40,34,92,66,42,30.35,30.24,10,1,10,0.00
2013-2-15,69,54,39,48,41,35,91,63,42,30.37,30.30,10,1,10,0.00
2013-2-16,68,50,37,49,41,34,93,73,44,30.33,30.13,8,0,8,0.00
2013-2-17,67,49,34,45,38,33,96,70,35,30.15,30.05,6,0,6,0.00
2013-2-18,54,44,32,43,37,30,97,77,58,30.12,30.04,14,2,14,0.00
2013-2-19,48,43,35,42,37,33,94,80,62,30.05,29.83,8,1,12,0.46
2013-2-20,60,44,29,38,34,28,97,73,38,30.15,29.93,8,1,8,0.01
2013-2-21,63,45,31,38,34,30,95,70,31,30.26,30.14,12,1,12,0.00
2013-2-22,66,49,33,42,36,31,93,65,34,30.34,30.25,10,1,10,0.00
2013-2-23,61,49,36,45,38,30,88,69,32,30.35,30.23,8,1,10,0.00
2013-2-24,64,47,32,32,26,18,86,51,19,30.35,30.25,11,1,11,0.00
2013-2-25,64,47,32,43,35,27,86,64,43,30.36,30.25,10,0,10,0.00
2013-2-26,71,51,35,36,29,20,88,50,15,30.32,30.21,7,0,7,0.00
2013-2-27,70,52,34,42,34,27,78,55,26,30.45,30.29,5,0,5,0.00
2013-2-28,71,55,41,53,46,38,91,73,49,30.54,30.45,9,0,9,0.00
2013-3-1,73,54,40,51,45,39,97,71,41,30.52,30.32,2,0,8,0.00
2013-3-2,71,57,44,55,47,38,89,70,54,30.33,30.14,6,0,6,0.00
2013-3-3,68,57,44,49,46,41,89,68,44,30.17,30.09,10,1,10,0.00
2013-3-4,64,49,38,50,43,37,96,80,56,30.23,30.13,9,1,9,0.00
2013-3-5,60,50,37,44,40,36,96,72,49,30.15,29.89,23,2,23,0.05
2013-3-6,58,49,37,45,40,35,93,74,49,30.16,29.91,16,2,16,0.16
2013-3-7,56,46,36,45,39,33,94,78,51,30.09,29.95,9,0,9,0.03
2013-3-8,64,49,36,43,39,33,97,74,33,30.13,29.92,11,1,12,0.00
2013-3-9,70,52,36,43,39,34,94,66,29,30.39,30.13,7,0,7,0.00
2013-3-10,70,53,36,42,37,31,88,59,30,30.45,30.33,7,0,7,0.00
2013-3-11,74,54,36,47,40,32,89,64,31,30.34,30.17,5,0,5,0.00
2013-3-12,78,53,38,51,43,36,94,73,34,30.25,30.14,5,0,6,0.00
2013-3-13,77,60,42,56,49,40,96,71,45,30.25,30.14,9,1,9,0.00
2013-3-14,75,59,46,57,48,42,95,69,36,30.23,30.15,7,0,7,0.00
2013-3-15,76,58,43,51,45,39,86,65,37,30.21,30.10,7,0,7,0.00
2013-3-16,76,58,42,52,44,39,95,65,30,30.18,30.08,8,1,11,0.00
2013-3-17,72,55,40,44,40,26,90,60,19,30.23,30.11,7,0,7,0.00
2013-3-18,70,53,39,50,41,36,90,67,39,30.19,30.09,5,0,7,0.00
2013-3-19,72,55,43,50,43,37,91,66,39,30.22,30.13,10,0,10,0.09
2013-3-20,64,55,48,54,50,45,95,83,61,30.21,30.15,10,1,12,0.03
2013-3-21,67,53,39,48,43,37,96,71,39,30.21,30.08,10,0,10,0.00
2013-3-22,70,52,36,40,28,11,92,50,11,30.21,30.10,14,1,14,0.00
2013-3-23,71,54,37,37,29,21,73,44,16,30.23,30.11,6,0,6,0.00
2013-3-24,74,55,37,48,40,32,85,58,34,30.18,30.03,6,0,6,0.00
2013-3-25,67,51,37,47,42,35,93,72,39,30.08,30.01,10,1,10,0.00
2013-3-26,71,51,45,50,43,41,87,75,42,30.08,29.99,9,1,9,0.00
2013-3-27,68,56,48,52,48,41,88,73,55,30.09,30.02,11,1,11,0.00
2013-3-28,70,59,51,57,53,48,95,82,58,30.17,30.09,5,0,5,0.10
2013-3-29,76,62,48,54,51,47,94,70,45,30.18,30.08,8,0,8,0.00
2013-3-30,72,59,53,57,52,49,94,78,54,30.13,30.05,8,1,9,0.09
2013-3-31,68,58,49,57,52,48,96,82,50,30.15,30.07,5,0,8,0.15
2013-4-1,68,57,48,56,52,45,97,83,58,30.24,30.12,8,0,8,0.14
2013-4-2,72,56,42,57,49,40,97,78,47,30.26,30.15,6,0,6,0.01
2013-4-3,78,59,43,56,49,42,97,73,40,30.22,30.04,8,0,8,0.00
2013-4-4,67,59,52,57,53,49,95,81,66,30.19,30.06,9,1,12,0.31
2013-4-5,67,58,52,54,51,48,94,76,57,30.26,30.19,11,1,11,0.01
2013-4-6,69,56,53,55,50,48,88,82,58,30.26,30.19,9,1,11,0.00
2013-4-7,66,56,49,54,49,45,93,78,56,30.24,29.90,14,2,14,0.09
2013-4-8,70,55,44,49,37,23,91,58,18,30.11,29.88,13,2,14,0.00
2013-4-9,77,57,39,41,35,26,91,53,17,30.17,30.10,14,1,14,0.00
2013-4-10,76,53,46,49,42,38,80,66,36,30.25,30.16,7,0,7,0.00
2013-4-11,77,66,50,50,46,41,84,52,30,30.10,29.89,8,1,10,0.00
2013-4-12,80,60,42,51,45,40,94,64,26,29.99,29.89,8,0,8,0.00
2013-4-13,75,59,45,51,45,39,89,63,38,29.98,29.87,11,1,11,0.00
2013-4-14,73,57,43,46,40,32,80,56,25,30.01,29.90,14,1,14,0.00
2013-4-15,63,51,46,46,40,35,82,69,36,30.03,29.92,13,1,15,0.00
2013-4-16,69,52,35,39,32,20,91,53,17,30.24,30.03,11,1,11,0.00
2013-4-17,70,57,43,33,28,18,65,36,14,30.35,30.24,12,1,12,0.00
2013-4-18,79,59,40,40,35,30,73,45,20,30.36,30.25,11,0,11,0.00
2013-4-19,83,65,43,52,45,38,86,52,29,30.31,30.13,9,1,9,0.00
2013-4-20,84,66,46,48,43,36,89,50,21,30.19,30.04,10,1,12,0.00
2013-4-21,88,68,46,48,42,35,85,47,17,30.12,29.99,7,0,7,0.00
2013-4-22,90,76,53,50,42,27,70,35,11,30.04,29.90,7,1,7,0.00
2013-4-23,86,69,52,48,31,20,67,29,10,30.02,29.91,13,1,13,0.00
2013-4-24,78,58,43,50,44,34,86,62,28,30.01,29.89,12,1,12,0.00
2013-4-25,68,58,50,52,48,46,87,72,51,30.20,30.00,11,2,11,0.00
2013-4-26,79,61,42,56,49,40,94,67,41,30.29,30.20,9,1,9,0.00
2013-4-27,85,62,42,58,49,40,95,67,34,30.30,30.12,9,0,9,0.00
2013-4-28,90,67,46,56,50,44,95,61,26,30.13,29.94,6,0,6,0.00
2013-4-29,92,72,54,55,50,45,81,51,20,29.97,29.81,7,0,7,0.00
2013-4-30,87,66,50,50,44,24,87,55,12,29.91,29.84,9,0,9,0.00
2013-5-1,86,75,63,33,23,16,19,14,10,30.10,29.93,17,2,17,0.00
2013-5-2,93,75,56,39,27,15,51,20,8,30.24,30.12,2,1,12,0.00
2013-5-3,94,69,50,47,39,33,63,36,12,30.15,29.85,1,0,7,0.00
2013-5-4,91,68,52,49,40,30,75,43,12,29.85,29.60,10,1,10,0.00
2013-5-5,72,60,52,51,48,45,79,65,44,29.89,29.64,10,1,10,0.00
2013-5-6,72,61,53,58,50,49,87,70,46,30.05,29.89,8,0,8,0.01
2013-5-7,75,64,54,55,50,44,87,63,38,30.10,30.03,10,1,10,0.00
2013-5-8,70,60,52,53,50,47,86,70,50,30.20,30.10,11,1,11,0.00
2013-5-9,76,60,49,55,50,46,91,70,47,30.23,30.14,9,1,9,0.00
2013-5-10,82,64,48,60,52,46,93,68,43,30.24,30.15,11,1,11,0.00
2013-5-11,94,68,49,62,54,44,96,65,21,30.20,30.08,8,0,8,0.00
2013-5-12,88,72,49,58,50,37,91,50,26,30.19,30.07,12,1,12,0.00
2013-5-13,89,69,48,58,51,45,90,57,32,30.14,29.99,9,1,9,0.00
2013-5-14,81,67,52,56,50,43,87,56,31,30.03,29.96,12,1,12,0.00
2013-5-15,73,62,48,50,47,42,84,57,42,30.10,30.01,12,2,12,0.00
2013-5-16,74,62,53,55,50,47,80,67,46,30.09,30.02,12,2,12,0.01
2013-5-17,73,60,49,50,45,42,81,61,37,30.14,30.04,13,2,13,0.00
2013-5-18,81,64,46,52,47,41,91,58,32,30.20,30.13,9,1,9,0.00
2013-5-19,85,64,47,50,45,41,87,56,22,30.20,30.10,7,0,7,0.00
2013-5-20,92,72,50,53,39,31,77,35,15,30.07,29.97,8,1,9,0.00
2013-5-21,76,64,53,50,44,36,76,50,25,30.03,29.95,12,1,12,0.00
2013-5-22,71,57,39,41,34,25,82,48,19,30.10,29.97,2,1,11,0.00
2013-5-23,74,59,47,43,41,35,80,53,24,30.07,29.98,2,1,11,0.00
2013-5-24,74,60,43,46,41,31,88,54,20,30.07,29.99,3,1,12,0.00
2013-5-25,72,58,45,48,46,41,88,64,39,30.10,30.02,11,2,12,0.00
2013-5-26,74,62,53,53,50,46,85,66,43,30.19,30.09,13,2,13,0.00
2013-5-27,66,59,52,57,51,45,90,75,62,30.19,30.06,11,1,11,0.04
2013-5-28,77,64,56,58,54,50,91,72,42,30.08,29.97,10,1,10,0.00
2013-5-29,77,66,57,56,50,44,78,59,42,30.03,29.95,12,1,12,0.00
2013-5-30,83,66,48,51,46,42,89,53,25,30.05,29.99,9,1,9,0.00
2013-5-31,92,71,48,51,46,42,84,46,18,30.09,29.95,8,1,8,0.00
2013-6-1,97,74,53,53,48,45,80,46,18,29.99,29.81,9,0,9,0.00
2013-6-2,91,74,57,57,51,47,76,47,28,29.83,29.70,10,1,10,0.00
2013-6-3,80,65,52,57,52,49,91,64,41,29.92,29.75,11,1,11,0.00
2013-6-4,63,55,52,54,50,49,89,85,72,29.98,29.91,9,1,9,0.00
2013-6-5,78,63,54,56,52,49,86,68,44,30.06,29.96,3,2,11,0.00
2013-6-6,89,70,52,60,54,49,90,60,38,30.01,29.88,9,1,9,0.00
2013-6-7,100,75,51,64,56,49,93,57,26,29.93,29.76,6,0,6,0.00
2013-6-8,103,78,59,64,57,53,82,53,25,29.83,29.72,11,1,11,0.00
2013-6-9,72,62,57,58,54,52,88,76,59,29.95,29.83,13,2,13,0.00
2013-6-10,73,62,55,55,52,50,85,71,50,30.03,29.87,13,2,13,0.00
2013-6-11,82,66,53,58,53,50,88,67,40,30.05,29.95,11,1,11,0.00
2013-6-12,84,67,48,54,48,42,92,55,28,30.04,29.96,10,1,10,0.00
2013-6-13,85,69,51,48,44,35,77,44,18,30.15,30.03,10,1,10,0.00
2013-6-14,92,69,50,53,43,29,82,47,12,30.06,29.89,8,0,8,0.00
2013-6-15,79,69,47,54,50,38,84,52,37,30.04,29.88,13,1,13,0.00
2013-6-16,87,69,48,51,47,43,89,50,22,30.12,30.03,12,1,12,0.00
2013-6-17,82,67,56,54,50,46,75,56,37,30.14,30.07,12,1,12,0.00
2013-6-18,74,64,55,51,49,46,82,60,40,30.08,30.03,15,2,15,0.00
2013-6-19,80,65,50,50,46,41,80,53,27,30.12,30.05,11,1,11,0.00
2013-6-20,83,68,50,52,46,41,82,50,24,30.08,29.99,11,1,11,0.00
2013-6-21,88,70,49,53,47,40,87,49,21,30.04,29.96,11,1,11,0.00
2013-6-22,92,73,50,55,48,37,83,47,15,29.99,29.88,12,1,12,0.00
2013-6-23,71,65,59,61,56,49,85,73,53,29.94,29.88,14,2,14,0.00
2013-6-24,67,62,59,61,58,55,94,87,77,29.98,29.85,4,1,7,0.09
2013-6-25,80,68,61,66,62,57,93,79,60,30.05,29.95,14,1,14,0.00
2013-6-26,86,74,63,66,62,58,91,69,41,30.11,30.04,10,1,10,0.00
2013-6-27,95,77,58,65,58,48,95,58,22,30.14,30.05,8,1,8,0.00
2013-6-28,103,81,61,66,58,51,85,51,19,30.08,29.93,10,1,10,0.00
2013-6-29,105,86,63,63,55,49,73,39,20,29.96,29.83,8,1,8,0.00
2013-6-30,102,85,63,62,57,49,77,42,18,29.89,29.78,8,1,8,0.00
2013-7-1,103,88,61,66,59,51,79,41,19,29.88,29.82,7,1,7,0.00
2013-7-2,103,82,65,64,59,55,77,49,25,29.95,29.85,11,1,11,0.00
2013-7-3,104,79,59,66,59,52,88,55,26,29.95,29.79,7,1,7,0.00
2013-7-4,104,86,69,66,58,45,67,42,22,29.83,29.69,10,1,10,0.00
2013-7-5,80,69,59,56,50,43,73,54,30,29.82,29.73,15,2,15,0.00
2013-7-6,82,71,56,58,54,50,85,58,40,29.86,29.77,13,2,13,0.00
2013-7-7,91,66,48,59,52,46,96,66,27,29.91,29.81,8,1,8,0.00
2013-7-8,92,65,52,58,51,41,94,67,22,30.02,29.90,8,1,9,0.00
2013-7-9,98,74,51,61,54,43,94,57,16,30.08,29.96,7,0,7,0.00
2013-7-10,94,73,54,59,50,30,86,53,12,30.02,29.93,9,1,10,0.00
2013-7-11,82,63,51,56,52,48,92,71,36,29.99,29.94,9,2,9,0.00
2013-7-12,85,72,48,58,52,46,94,52,29,29.99,29.91,9,2,10,0.00
2013-7-13,93,71,48,59,49,42,81,51,19,30.00,29.92,10,1,10,0.00
2013-7-14,90,69,48,57,49,42,86,53,21,30.04,29.92,10,1,10,0.00
2013-7-15,79,62,51,56,52,48,90,71,43,29.97,29.87,11,2,13,0.00
2013-7-16,70,61,56,55,52,52,86,75,58,30.05,29.92,15,2,15,0.00
2013-7-17,86,69,56,59,55,52,87,64,35,30.16,30.07,2,1,9,0.00
2013-7-18,89,64,48,59,53,46,95,72,33,30.11,30.02,2,0,7,0.00
2013-7-19,96,84,63,62,57,51,66,41,29,30.02,29.84,9,1,9,0.00
2013-7-20,96,69,53,62,54,51,92,63,24,29.90,29.75,7,1,8,0.00
2013-7-21,92,70,54,60,54,50,91,61,26,29.91,29.80,11,1,11,0.00
2013-7-22,86,69,55,61,55,51,90,65,35,30.02,29.91,9,1,9,0.00
2013-7-23,86,71,62,60,54,48,78,59,27,30.05,29.97,8,1,8,0.00
2013-7-24,95,77,59,58,52,46,80,46,23,30.03,29.93,2,1,11,0.00
2013-7-25,92,75,60,60,54,50,79,50,31,30.04,29.96,2,1,10,0.00
2013-7-26,93,75,56,60,55,46,85,52,29,30.13,30.02,10,1,10,0.00
2013-7-27,87,66,54,60,55,51,91,72,34,30.07,29.89,9,1,10,0.00
2013-7-28,81,66,55,60,54,51,91,69,41,29.92,29.83,12,2,12,0.00
2013-7-29,76,63,55,57,54,51,88,73,50,30.07,29.88,11,2,12,0.00
2013-7-30,84,60,54,58,52,50,89,77,35,30.16,30.07,8,1,11,0.00
2013-7-31,84,66,52,57,52,45,92,63,33,30.13,30.04,10,1,10,0.00
2013-8-1,80,65,50,54,50,46,90,60,32,30.11,30.00,11,1,14,0.00
2013-8-2,88,67,49,57,51,46,95,61,29,30.04,29.93,10,1,10,0.00
2013-8-3,87,67,48,60,52,45,92,64,31,30.03,29.94,9,1,9,0.00
2013-8-4,84,64,54,58,53,50,91,70,35,30.06,29.98,11,1,11,0.00
2013-8-5,84,65,54,59,53,48,91,69,35,30.09,29.98,11,1,11,0.00
2013-8-6,77,62,53,57,53,50,91,75,49,30.10,30.03,13,2,13,0.00
2013-8-7,73,64,56,58,54,52,92,74,55,30.17,30.10,12,2,12,0.00
2013-8-8,79,61,55,58,53,51,88,77,45,30.10,29.99,8,1,11,0.00
2013-8-9,77,60,55,58,53,51,89,78,50,30.05,29.97,11,2,11,0.00
2013-8-10,82,67,56,60,56,53,89,71,45,30.11,30.04,11,2,11,0.00
2013-8-11,86,68,54,59,55,52,95,67,32,30.08,29.98,2,1,10,0.00
2013-8-12,89,68,50,59,51,48,95,59,26,30.05,29.98,2,1,10,0.00
2013-8-13,94,67,48,58,49,41,86,60,17,30.06,29.94,7,0,7,0.00
2013-8-14,91,71,51,57,53,48,92,58,25,30.02,29.94,10,1,10,0.00
2013-8-15,92,74,56,64,60,54,96,66,34,30.01,29.95,9,1,9,0.00
2013-8-16,94,76,59,66,60,54,96,63,33,30.03,29.97,9,1,9,0.00
2013-8-17,86,71,58,60,57,52,84,63,37,30.03,29.90,6,1,8,0.00
2013-8-18,100,77,55,64,58,48,93,59,19,29.95,29.82,7,0,7,0.00
2013-8-19,94,79,63,65,58,50,83,51,30,29.93,29.84,9,1,9,0.00
2013-8-20,91,73,59,62,55,46,84,57,29,29.94,29.84,11,1,11,0.00
2013-8-21,85,68,56,60,54,49,89,65,31,29.99,29.88,9,1,9,0.00
2013-8-22,80,68,53,58,54,50,93,63,42,30.03,29.93,12,2,12,0.00
2013-8-23,84,67,54,59,54,51,89,67,38,29.99,29.85,8,1,8,0.00
2013-8-24,85,66,54,60,54,51,91,68,39,29.95,29.87,11,1,13,0.00
2013-8-25,86,71,62,64,60,56,89,70,44,30.01,29.93,10,2,10,0.00
2013-8-26,83,63,59,60,55,50,88,76,38,30.08,29.95,7,1,10,0.00
2013-8-27,90,70,51,58,53,48,89,61,25,29.96,29.86,6,1,9,0.00
2013-8-28,88,67,57,63,56,54,90,71,39,29.98,29.90,7,1,9,0.00
2013-8-29,88,74,60,66,60,56,92,65,35,30.11,29.99,10,1,10,0.00
2013-8-30,68,63,58,59,58,56,90,84,74,30.08,30.06,1,0,3,0.00
2013-8-31,89,72,54,59,54,50,89,58,28,30.02,29.93,3,1,15,0.00
2013-9-1,87,72,60,58,56,52,81,58,34,30.00,29.92,3,1,11,0.00
2013-9-2,86,73,65,64,60,57,83,65,42,30.01,29.93,2,1,11,0.00
2013-9-3,82,69,60,57,55,49,76,64,33,30.05,29.98,12,1,12,0.00
2013-9-4,84,70,59,60,56,52,86,64,33,30.09,29.98,9,1,9,0.00
2013-9-5,84,73,55,57,54,50,90,55,32,30.07,29.99,12,2,12,0.00
2013-9-6,93,73,52,56,50,42,90,51,18,30.05,29.88,11,0,11,0.00
2013-9-7,97,76,56,56,47,41,72,42,15,29.95,29.84,8,0,8,0.00
2013-9-8,98,75,54,59,51,44,73,48,18,29.93,29.79,7,0,7,0.00
2013-9-9,99,76,54,60,51,43,89,48,20,29.87,29.74,10,0,10,0.00
2013-9-10,83,68,60,61,56,50,85,67,45,29.95,29.76,12,1,12,0.00
2013-9-11,76,67,61,60,58,56,86,73,55,30.06,29.95,11,2,11,0.00
2013-9-12,85,69,60,63,59,56,87,73,46,30.04,29.92,2,1,9,0.00
2013-9-13,88,73,55,62,57,51,94,60,41,29.95,29.80,11,1,11,0.00
2013-9-14,80,63,52,60,54,50,94,72,48,29.87,29.77,5,0,10,0.00
2013-9-15,83,67,54,59,55,49,88,67,41,29.92,29.81,10,1,10,0.00
2013-9-16,86,66,54,62,56,52,96,74,34,29.95,29.83,14,1,14,0.00
2013-9-17,79,67,0,56,53,0,82,62,40,29.95,29.86,12,1,12,0.00
2013-9-18,86,66,49,54,47,41,91,57,21,29.99,29.87,5,1,8,0.00
2013-9-19,91,68,48,51,44,34,82,50,14,29.93,29.80,6,0,6,0.00
2013-9-20,76,63,49,60,52,40,86,68,55,29.91,29.82,13,1,13,0.00
2013-9-21,68,62,53,60,56,51,92,81,64,29.97,29.87,10,1,10,0.57
2013-9-22,75,61,48,56,52,47,97,75,42,30.08,29.97,8,0,8,0.00
2013-9-23,83,62,49,58,52,47,96,75,38,30.10,30.00,7,0,7,0.00
2013-9-24,79,68,55,57,52,48,92,58,38,30.05,29.95,10,2,10,0.00
2013-9-25,72,60,50,49,46,43,85,63,36,30.01,29.88,11,1,11,0.00
2013-9-26,76,56,42,46,42,30,92,66,20,30.06,29.91,7,0,10,0.00
2013-9-27,79,61,44,45,39,32,81,49,20,30.18,30.06,11,0,11,0.00
2013-9-28,84,61,44,55,42,32,84,56,18,30.16,30.05,6,0,6,0.00
2013-9-29,78,63,55,59,55,52,91,75,51,30.17,30.11,8,1,9,0.00
2013-9-30,77,68,62,62,59,57,86,75,55,30.14,30.02,3,1,11,0.00
2013-10-1,76,66,53,53,50,45,80,57,37,30.08,29.98,6,0,7,0.00
2013-10-2,80,62,46,53,48,44,92,66,33,30.08,29.99,7,1,7,0.00
2013-10-3,74,66,43,44,35,29,87,35,19,30.16,30.03,11,1,11,0.00
2013-10-4,80,71,57,35,31,26,38,24,15,30.18,30.07,14,2,16,0.00
2013-10-5,82,74,53,37,31,22,49,21,15,30.29,30.18,10,1,10,0.00
2013-10-6,83,64,45,43,37,32,69,40,18,30.22,30.07,9,0,9,0.00
2013-10-7,85,65,48,42,34,24,64,37,12,30.07,29.92,6,0,6,0.00
2013-10-8,78,60,45,49,42,35,84,55,27,29.98,29.78,8,0,8,0.00
2013-10-9,72,57,44,48,44,40,90,65,34,29.83,29.70,7,0,7,0.00
2013-10-10,76,58,45,48,42,38,81,59,29,30.08,29.83,8,0,8,0.00
2013-10-11,71,55,41,54,45,38,91,73,38,30.17,30.04,6,0,6,0.00
2013-10-12,76,56,39,52,43,36,90,66,34,30.08,29.96,9,0,9,0.00
2013-10-13,55,51,47,45,44,43,86,78,68,30.01,30.00,2,0,4,0.00
2013-10-14,77,61,44,41,37,34,80,45,23,30.21,30.07,6,0,12,0.00
2013-10-15,80,61,45,39,35,31,73,42,18,30.14,30.03,10,1,10,0.00
2013-10-16,81,62,47,42,36,30,58,41,21,30.18,30.07,7,0,7,0.00
2013-10-17,82,61,45,42,35,26,69,43,14,30.16,30.02,5,0,5,0.00
2013-10-18,81,60,43,44,38,33,85,49,22,30.12,30.04,5,0,5,0.00
2013-10-19,84,61,43,48,40,37,80,51,22,30.16,30.05,9,0,9,0.00
2013-10-20,83,50,42,48,39,35,85,68,25,30.09,29.96,1,0,6,0.00
2013-10-21,78,57,41,52,45,38,93,68,37,30.08,29.97,4,0,4,0.00
2013-10-22,83,58,40,52,45,38,96,68,27,30.10,29.97,7,0,7,0.00
2013-10-23,77,56,40,55,46,38,96,72,36,30.04,29.94,3,0,3,0.00
2013-10-24,48,47,45,46,44,43,92,91,90,30.04,30.03,1,0,1,0.00
2013-10-25,63,47,40,51,44,39,97,89,65,30.25,30.17,1,0,2,0.00
2013-10-26,81,58,40,51,43,38,94,63,24,30.23,30.08,1,0,5,0.00
2013-10-27,64,53,40,50,45,37,94,76,58,30.09,29.71,19,2,19,0.00
2013-10-28,64,54,46,47,44,42,85,71,48,29.92,29.75,11,1,11,0.00
2013-10-29,57,53,51,49,47,46,84,79,72,30.06,29.92,7,0,7,0.00
2013-10-30,68,51,38,49,43,37,96,76,42,30.24,30.14,1,0,5,0.00
2013-10-31,72,54,40,48,42,38,95,69,36,30.27,30.14,1,0,7,0.00
2013-11-1,72,54,40,48,43,38,93,69,39,30.24,30.09,2,0,10,0.00
2013-11-2,75,56,41,51,44,37,90,67,36,30.11,29.96,6,0,10,0.00
2013-11-3,64,49,36,44,34,27,93,62,25,30.14,30.00,4,0,4,0.00
2013-11-4,70,51,34,38,31,24,92,52,19,30.17,30.01,8,0,9,0.00
2013-11-5,72,54,40,39,34,31,74,50,26,30.31,30.16,6,0,6,0.00
2013-11-6,71,54,39,43,38,33,88,57,32,30.36,30.25,9,0,9,0.00
2013-11-7,76,57,44,44,39,35,78,55,24,30.26,30.14,6,0,6,0.00
2013-11-8,76,57,41,51,44,38,94,66,36,30.17,30.03,5,0,5,0.00
2013-11-9,72,54,42,48,44,39,92,70,41,30.12,30.05,2,0,9,0.00
2013-11-10,68,52,40,52,45,38,93,79,54,30.20,30.11,1,0,5,0.00
2013-11-11,67,52,40,50,44,38,96,76,48,30.25,30.17,1,0,9,0.00
2013-11-12,72,53,46,51,43,40,82,70,37,30.35,30.24,1,0,5,0.00
2013-11-13,78,57,42,52,45,39,94,69,31,30.33,30.16,4,0,4,0.00
2013-11-14,72,54,42,55,46,37,96,76,53,30.18,29.95,6,0,6,0.00
2013-11-15,68,51,38,42,37,34,89,63,30,29.95,29.80,3,0,5,0.00
2013-11-16,66,52,39,47,41,34,92,70,36,30.00,29.84,7,0,7,0.00
2013-11-17,65,50,38,50,44,37,97,80,54,30.16,30.00,9,0,9,0.01
2013-11-18,60,50,40,47,45,39,95,81,57,30.23,30.16,10,1,12,0.00
2013-11-19,60,54,49,55,50,44,95,87,73,30.18,30.01,11,0,11,0.53
2013-11-20,62,56,51,57,54,50,96,92,82,30.02,29.92,7,0,7,0.95
2013-11-21,60,53,48,50,36,20,96,59,25,30.08,29.97,27,4,27,0.30
2013-11-22,68,57,48,33,20,12,47,24,14,30.13,30.00,30,6,30,0.00
2013-11-23,66,50,39,42,35,29,84,60,26,30.19,30.06,6,1,8,0.00
2013-11-24,62,47,36,46,39,34,93,74,40,30.30,30.19,7,0,7,0.00
2013-11-25,61,49,36,46,41,34,94,76,53,30.43,30.34,7,0,10,0.00
2013-11-26,59,48,39,44,40,36,93,75,49,30.36,30.13,12,1,12,0.00
2013-11-27,58,49,40,47,43,38,95,81,66,30.13,29.94,13,1,13,0.00
2013-11-28,68,57,45,44,41,39,85,57,39,30.15,29.96,8,1,8,0.00
2013-11-29,67,53,40,45,41,36,89,67,43,30.27,30.15,9,0,9,0.00
2013-11-30,67,49,40,46,41,36,87,74,40,30.37,30.27,3,0,6,0.00
2013-12-1,69,52,40,48,42,37,92,72,41,30.43,30.30,7,0,7,0.00
2013-12-2,67,52,38,51,44,36,94,76,45,30.32,30.02,11,1,11,0.00
2013-12-3,56,52,49,52,37,29,86,58,39,30.03,29.93,10,2,20,0.00
2013-12-4,49,34,29,24,17,12,76,51,22,30.18,30.03,3,0,9,0.00
2013-12-5,48,35,27,18,16,12,62,47,23,30.26,30.17,9,1,9,0.00
2013-12-6,49,39,26,44,31,18,92,72,49,30.29,29.98,20,2,20,0.43
2013-12-7,46,40,29,44,31,20,93,71,38,30.35,30.00,16,2,16,0.01
2013-12-8,42,35,28,26,21,14,88,58,38,30.43,30.32,12,1,13,0.00
2013-12-9,48,37,27,25,19,12,83,49,36,30.52,30.42,11,1,11,0.00
2013-12-10,51,37,25,28,25,21,89,65,37,30.52,30.30,13,1,13,0.00
2013-12-11,53,38,26,32,27,22,90,67,37,30.36,30.28,12,1,12,0.00
2013-12-12,58,35,27,35,29,25,91,79,39,30.37,30.25,5,0,11,0.00
2013-12-13,60,43,30,39,31,27,92,66,29,30.43,30.31,7,0,7,0.00
2013-12-14,57,42,31,39,32,26,92,69,44,30.51,30.40,12,1,12,0.00
2013-12-15,60,42,30,38,31,26,92,69,38,30.47,30.33,9,1,13,0.00
2013-12-16,65,47,34,39,33,30,92,63,30,30.35,30.22,11,1,11,0.00
2013-12-17,62,47,36,43,36,31,93,70,38,30.29,30.12,12,0,12,0.00
2013-12-18,64,49,38,44,37,32,80,66,37,30.13,29.82,10,1,12,0.00
2013-12-19,59,44,35,42,33,21,91,68,29,30.03,29.80,19,1,19,0.00
2013-12-20,62,46,33,28,16,5,59,35,11,30.11,30.02,6,0,6,0.00
2013-12-21,62,42,37,41,34,27,91,75,35,30.18,30.05,5,0,6,0.00
2013-12-22,62,43,34,41,36,32,95,79,39,30.38,30.18,8,0,10,0.00
2013-12-23,60,46,34,41,36,31,93,71,44,30.49,30.37,12,1,12,0.00
2013-12-24,66,44,38,43,36,34,88,75,40,30.43,30.29,3,0,7,0.00
2013-12-25,62,47,33,43,36,31,95,69,44,30.40,30.30,11,1,11,0.00
2013-12-26,63,46,32,42,34,30,93,66,35,30.36,30.26,10,1,13,0.00
2013-12-27,59,43,32,44,35,28,88,75,54,30.34,30.21,7,0,7,0.00
2013-12-28,67,48,33,33,29,21,84,53,23,30.24,30.11,15,1,15,0.00
2013-12-29,62,51,37,35,25,18,73,39,22,30.28,30.18,11,1,16,0.00
2013-12-30,61,44,31,40,33,27,86,69,45,30.36,30.27,6,0,6,0.00
2013-12-31,63,46,36,39,32,30,81,63,29,30.36,30.24,12,1,12,0.00
2014-1-2,65,48,34,37,33,28,83,59,34,30.28,30.14,5,1,12,0.00